sat.trackr.live / text

‹ back to catalog

SCATSAT 1

NORAD 41790 · 2016-059H

PAYLOAD ACTIVE UNKNOWN

§ Identity

Operator
Country
IND
Launch date
2016-09-26
Launch site
SRILR
Launch vehicle
Mass (kg)
RCS (m²)
1.72

Purposes: earth_obs

External: N2YO · Heavens-Above · Gunter

§ Orbital elements

Epoch: 2026-09-13T03:02:46.205088Z

Period
97.32 min
Inclination
98.1108°
Eccentricity
0.0053587
Mean motion
14.79700779 rev/d
Perigee alt
592.7 km
Apogee alt
667.8 km
Semi-major
7,008.4 km
B*
9.7772e-5
RAAN
320.7689°
Arg perigee
325.7256°
Mean anomaly
34.0501°
Rev number
11,459

§ Raw data

SCATSAT 11 41790U 16059H   26256.12692367  .00000694  00000+0  97772-4 0  99932 41790  98.1108 320.7689 0053587 325.7256  34.0501 14.79700779114597

JSON: /api/v1/satellites/41790 · /tle

For live sub-satellite position, see the globe view (requires WebGL).

§ Visibility from observer

Set your observer location to see the next 7 days of passes ≥ 10°. The values pass through the URL so the page stays shareable.

No JS? Fill the form by hand. The geolocation button needs JavaScript.